TimeCST,TemperatureF,Dew PointF,Humidity,Sea Level PressureIn,VisibilityMPH,Wind Direction,Wind SpeedMPH,Gust SpeedMPH,PrecipitationIn,Events,Conditions,WindDirDegrees,DateUTC
12:15 AM,71.6,62.6,73,30.03,10.0,SSE,12.7,-,N/A,,Light Drizzle,150,2011-11-27 06:15:00
12:22 AM,71.6,62.6,73,30.02,10.0,SSE,12.7,-,N/A,Rain,Light Rain,160,2011-11-27 06:22:00
12:24 AM,71.6,62.6,73,30.03,10.0,SSE,12.7,-,N/A,Rain,Light Rain,160,2011-11-27 06:24:00
12:32 AM,69.8,62.6,78,30.02,10.0,South,20.7,-,N/A,,Overcast,170,2011-11-27 06:32:00
12:33 AM,69.8,62.6,78,30.02,10.0,SSE,20.7,-,N/A,,Light Drizzle,160,2011-11-27 06:33:00
12:43 AM,71.6,64.4,78,30.02,10.0,SSE,12.7,-,N/A,,Overcast,160,2011-11-27 06:43:00
12:52 AM,71.6,64.4,78,30.01,10.0,SSE,11.5,-,N/A,,Overcast,160,2011-11-27 06:52:00
12:54 AM,71.6,64.4,78,30.01,10.0,SSE,13.8,-,N/A,,Overcast,160,2011-11-27 06:54:00
12:55 AM,71.1,63.7,77,30.02,10.0,SSE,13.8,-,0.00,,Overcast,160,2011-11-27 06:55:00
1:12 AM,71.6,62.6,73,30.01,10.0,SSE,10.4,-,N/A,,Overcast,150,2011-11-27 07:12:00
1:55 AM,71.8,64.0,77,30.00,10.0,SSE,13.8,-,N/A,,Overcast,150,2011-11-27 07:55:00
2:26 AM,71.6,64.4,78,30.00,10.0,SSE,15.0,-,N/A,Rain,Light Rain,160,2011-11-27 08:26:00
2:27 AM,71.6,64.4,78,30.00,10.0,SSE,13.8,-,N/A,Rain,Light Rain,160,2011-11-27 08:27:00
2:55 AM,70.2,64.0,81,29.99,10.0,SSE,12.7,-,0.00,Rain,Light Rain,150,2011-11-27 08:55:00
3:05 AM,69.8,64.4,83,29.99,10.0,South,11.5,-,N/A,Rain,Light Rain,180,2011-11-27 09:05:00
3:13 AM,69.8,64.4,83,29.99,8.0,South,6.9,-,N/A,Rain,Light Rain,190,2011-11-27 09:13:00
3:22 AM,69.8,64.4,83,29.99,5.0,WSW,6.9,-,N/A,Rain,Light Rain,250,2011-11-27 09:22:00
3:27 AM,69.8,64.4,83,29.99,5.0,WSW,5.8,-,N/A,Rain,Light Rain,240,2011-11-27 09:27:00
3:55 AM,68.2,64.2,87,29.99,10.0,SSW,8.1,-,0.01,,Light Drizzle,200,2011-11-27 09:55:00
4:03 AM,68.0,64.4,88,29.99,10.0,South,10.4,-,N/A,,Light Drizzle,180,2011-11-27 10:03:00
4:04 AM,68.0,64.4,88,29.98,10.0,South,11.5,-,N/A,,Overcast,170,2011-11-27 10:04:00
4:23 AM,69.8,62.6,78,29.98,10.0,South,11.5,-,N/A,,Light Drizzle,170,2011-11-27 10:23:00
4:48 AM,68.0,62.6,83,29.97,10.0,SSE,13.8,26.5,N/A,Rain,Light Rain,160,2011-11-27 10:48:00
4:51 AM,68.0,62.6,83,29.97,10.0,SSE,13.8,-,N/A,Rain,Light Rain,160,2011-11-27 10:51:00
4:55 AM,67.6,63.7,87,29.97,10.0,SSE,11.5,-,0.00,,Light Drizzle,160,2011-11-27 10:55:00
5:01 AM,68.0,64.4,88,29.97,10.0,South,6.9,-,N/A,,Overcast,170,2011-11-27 11:01:00
5:55 AM,69.8,62.4,77,29.96,10.0,SSE,16.1,27.6,0.00,,Overcast,150,2011-11-27 11:55:00
6:10 AM,69.8,62.6,78,29.96,10.0,South,12.7,-,N/A,Rain,Light Rain,180,2011-11-27 12:10:00
6:23 AM,69.8,62.6,78,29.96,10.0,SSE,12.7,-,N/A,,Overcast,160,2011-11-27 12:23:00
6:55 AM,70.0,64.2,82,29.96,10.0,SE,6.9,-,0.00,Rain,Light Rain,130,2011-11-27 12:55:00
7:19 AM,69.8,64.4,83,29.96,10.0,ESE,6.9,-,N/A,,Overcast,110,2011-11-27 13:19:00
7:55 AM,70.9,63.9,78,29.96,10.0,SE,6.9,-,0.00,,Overcast,130,2011-11-27 13:55:00
8:00 AM,71.6,64.4,78,29.97,10.0,SE,10.4,-,N/A,Rain,Light Rain,140,2011-11-27 14:00:00
8:22 AM,69.8,64.4,83,29.97,10.0,SSE,15.0,-,N/A,,Mostly Cloudy,150,2011-11-27 14:22:00
8:55 AM,71.2,65.3,81,29.97,10.0,SE,11.5,-,0.00,,Overcast,140,2011-11-27 14:55:00
9:05 AM,71.6,64.4,78,29.98,10.0,SE,12.7,-,N/A,,Light Drizzle,140,2011-11-27 15:05:00
9:15 AM,71.6,66.2,83,29.98,10.0,SE,11.5,-,N/A,,Overcast,140,2011-11-27 15:15:00
9:24 AM,71.6,66.2,83,29.98,10.0,SE,13.8,-,N/A,Rain,Light Rain,140,2011-11-27 15:24:00
9:26 AM,71.6,66.2,83,29.98,10.0,SE,10.4,19.6,N/A,Rain,Light Rain,140,2011-11-27 15:26:00
9:48 AM,71.6,66.2,83,29.97,6.0,SE,12.7,-,N/A,Rain,Light Rain,140,2011-11-27 15:48:00
9:55 AM,70.7,66.4,86,29.97,7.0,SSE,12.7,-,0.01,Rain,Light Rain,150,2011-11-27 15:55:00
10:00 AM,71.6,66.2,83,29.97,9.0,SE,15.0,-,N/A,Rain,Light Rain,140,2011-11-27 16:00:00
10:22 AM,69.8,66.2,88,29.97,7.0,SSE,18.4,21.9,N/A,Rain,Light Rain,150,2011-11-27 16:22:00
10:46 AM,69.8,66.2,88,29.96,10.0,SSE,11.5,-,N/A,Rain,Light Rain,150,2011-11-27 16:46:00
10:53 AM,71.6,66.2,83,29.96,10.0,SSE,16.1,-,N/A,,Overcast,150,2011-11-27 16:53:00
10:55 AM,70.9,66.2,85,29.95,10.0,SSE,13.8,-,0.01,,Overcast,150,2011-11-27 16:55:00
11:04 AM,71.6,66.2,83,29.95,10.0,SSE,16.1,21.9,N/A,,Light Drizzle,150,2011-11-27 17:04:00
11:08 AM,71.6,66.2,83,29.95,10.0,SSE,16.1,25.3,N/A,,Light Drizzle,150,2011-11-27 17:08:00
11:09 AM,71.6,66.2,83,29.95,10.0,SSE,16.1,25.3,N/A,,Light Drizzle,150,2011-11-27 17:09:00
11:14 AM,71.6,66.2,83,29.94,10.0,SSE,17.3,25.3,N/A,,Overcast,150,2011-11-27 17:14:00
11:16 AM,71.6,66.2,83,29.94,10.0,SSE,16.1,25.3,N/A,,Overcast,150,2011-11-27 17:16:00
11:18 AM,71.6,66.2,83,29.94,10.0,SSE,17.3,-,N/A,,Overcast,150,2011-11-27 17:18:00
11:35 AM,71.6,66.2,83,29.93,10.0,SSE,15.0,-,N/A,Rain,Light Rain,160,2011-11-27 17:35:00
11:41 AM,71.6,66.2,83,29.93,10.0,SSE,15.0,-,N/A,Rain,Light Rain,160,2011-11-27 17:41:00
11:55 AM,70.9,66.0,85,29.92,10.0,SSE,16.1,-,0.00,Rain,Light Rain,150,2011-11-27 17:55:00
12:01 PM,69.8,66.2,88,29.92,10.0,SSE,18.4,27.6,N/A,Rain,Light Rain,150,2011-11-27 18:01:00
12:04 PM,69.8,66.2,88,29.92,10.0,SSE,16.1,27.6,N/A,,Light Drizzle,150,2011-11-27 18:04:00
12:05 PM,69.8,66.2,88,29.92,10.0,SSE,16.1,27.6,N/A,,Light Drizzle,150,2011-11-27 18:05:00
12:08 PM,69.8,66.2,88,29.92,10.0,SSE,15.0,-,N/A,,Overcast,150,2011-11-27 18:08:00
12:29 PM,71.6,66.2,83,29.91,10.0,South,12.7,-,N/A,,Scattered Clouds,170,2011-11-27 18:29:00
12:34 PM,71.6,66.2,83,29.91,10.0,South,21.9,31.1,N/A,,Mostly Cloudy,180,2011-11-27 18:34:00
12:43 PM,69.8,64.4,83,29.91,10.0,SSW,12.7,32.2,N/A,Rain,Light Rain,200,2011-11-27 18:43:00
12:44 PM,69.8,64.4,83,29.91,10.0,SSW,12.7,32.2,N/A,Rain,Light Rain,200,2011-11-27 18:44:00
12:53 PM,69.8,64.4,83,29.91,10.0,South,11.5,-,N/A,Rain,Light Rain,190,2011-11-27 18:53:00
12:55 PM,69.8,64.9,84,29.90,9.0,South,12.7,-,0.00,Rain,Light Rain,190,2011-11-27 18:55:00
1:20 PM,68.0,64.4,88,29.89,6.0,SSW,9.2,-,N/A,Rain,Light Rain,200,2011-11-27 19:20:00
1:37 PM,68.0,64.4,88,29.88,5.0,South,3.5,-,N/A,,Overcast,190,2011-11-27 19:37:00
1:47 PM,68.0,66.2,94,29.87,10.0,SSE,3.5,-,N/A,,Overcast,150,2011-11-27 19:47:00
1:50 PM,68.0,66.2,94,29.87,10.0,Calm,Calm,-,N/A,,Overcast,0,2011-11-27 19:50:00
1:54 PM,68.0,66.2,94,29.87,10.0,Calm,Calm,-,N/A,,Overcast,0,2011-11-27 19:54:00
1:55 PM,68.9,66.4,92,29.87,10.0,SE,3.5,-,0.04,,Overcast,130,2011-11-27 19:55:00
2:01 PM,69.8,66.2,88,29.87,10.0,Calm,Calm,-,N/A,Rain,Light Rain,0,2011-11-27 20:01:00
2:24 PM,69.8,66.2,88,29.86,9.0,Calm,Calm,-,N/A,Rain,Light Rain,0,2011-11-27 20:24:00
2:39 PM,69.8,66.2,88,29.86,7.0,Calm,Calm,-,N/A,Rain,Light Rain,0,2011-11-27 20:39:00
2:41 PM,69.8,66.2,88,29.86,7.0,Calm,Calm,-,N/A,Rain,Light Rain,0,2011-11-27 20:41:00
2:55 PM,69.4,67.5,93,29.86,7.0,SSE,5.8,-,0.01,Rain,Light Rain,150,2011-11-27 20:55:00
3:09 PM,69.8,68.0,94,29.85,6.0,SE,12.7,-,N/A,Rain,Light Rain,140,2011-11-27 21:09:00
3:24 PM,69.8,66.2,88,29.85,9.0,SE,16.1,21.9,N/A,Rain,Light Rain,130,2011-11-27 21:24:00
3:27 PM,69.8,66.2,88,29.85,7.0,SE,16.1,21.9,N/A,Rain,Light Rain,140,2011-11-27 21:27:00
3:35 PM,69.8,66.2,88,29.85,5.0,SSE,15.0,-,N/A,Rain,Light Rain,150,2011-11-27 21:35:00
3:36 PM,69.8,66.2,88,29.85,5.0,SSE,15.0,-,N/A,Rain,Light Rain,150,2011-11-27 21:36:00
3:40 PM,69.8,68.0,94,29.85,6.0,SE,11.5,-,N/A,Rain,Light Rain,140,2011-11-27 21:40:00
3:55 PM,69.1,67.3,94,29.84,7.0,SSE,12.7,-,0.02,Rain,Light Rain,160,2011-11-27 21:55:00
4:14 PM,69.8,68.0,94,29.84,5.0,South,9.2,-,N/A,Rain,Light Rain,180,2011-11-27 22:14:00
4:19 PM,69.8,68.0,94,29.84,5.0,South,9.2,-,N/A,Rain,Light Rain,170,2011-11-27 22:19:00
4:21 PM,69.8,68.0,94,29.84,5.0,South,9.2,-,N/A,Rain,Light Rain,170,2011-11-27 22:21:00
4:28 PM,69.8,68.0,94,29.84,3.0,SSE,10.4,-,N/A,Rain,Light Rain,160,2011-11-27 22:28:00
4:30 PM,69.8,68.0,94,29.84,3.0,SSE,10.4,-,N/A,Rain,Light Rain,160,2011-11-27 22:30:00
4:31 PM,69.8,68.0,94,29.84,3.0,South,10.4,-,N/A,Rain,Light Rain,170,2011-11-27 22:31:00
4:55 PM,67.8,66.7,96,29.85,10.0,West,5.8,-,0.05,Rain,Light Rain,260,2011-11-27 22:55:00
5:17 PM,68.0,66.2,94,29.84,10.0,Variable,3.5,-,N/A,,Overcast,0,2011-11-27 23:17:00
5:44 PM,66.2,66.2,100,29.86,10.0,West,11.5,-,N/A,,Overcast,260,2011-11-27 23:44:00
5:46 PM,66.2,66.2,100,29.86,10.0,West,10.4,-,N/A,,Light Drizzle,270,2011-11-27 23:46:00
5:55 PM,65.7,64.6,96,29.86,10.0,Variable,6.9,-,0.01,,Light Drizzle,0,2011-11-27 23:55:00
6:12 PM,64.4,64.4,100,29.87,10.0,Variable,5.8,-,N/A,,Overcast,0,2011-11-28 00:12:00
6:17 PM,64.4,64.4,100,29.88,10.0,West,4.6,-,N/A,Rain,Light Rain,270,2011-11-28 00:17:00
6:24 PM,64.4,64.4,100,29.88,9.0,WNW,9.2,-,N/A,Rain,Light Rain,290,2011-11-28 00:24:00
6:46 PM,64.4,62.6,94,29.89,10.0,West,5.8,-,N/A,Rain,Light Rain,280,2011-11-28 00:46:00
6:47 PM,62.6,62.6,100,29.89,10.0,WNW,6.9,-,N/A,Rain,Light Rain,290,2011-11-28 00:47:00
6:49 PM,62.6,62.6,100,29.89,10.0,WNW,6.9,-,N/A,Rain,Light Rain,290,2011-11-28 00:49:00
6:51 PM,62.6,62.6,100,29.89,10.0,WNW,8.1,-,N/A,,Light Drizzle,290,2011-11-28 00:51:00
6:53 PM,62.6,62.6,100,29.89,10.0,West,6.9,-,N/A,,Overcast,280,2011-11-28 00:53:00
6:55 PM,63.1,62.1,96,29.89,10.0,West,6.9,-,0.00,,Overcast,280,2011-11-28 00:55:00
7:03 PM,62.6,62.6,100,29.89,10.0,West,5.8,-,N/A,Rain,Light Rain,280,2011-11-28 01:03:00
7:05 PM,62.6,62.6,100,29.89,10.0,Variable,4.6,-,N/A,Rain,Light Rain,0,2011-11-28 01:05:00
7:11 PM,62.6,60.8,94,29.89,10.0,West,5.8,-,N/A,Rain,Light Rain,280,2011-11-28 01:11:00
7:22 PM,62.6,60.8,94,29.90,10.0,West,4.6,-,N/A,,Overcast,280,2011-11-28 01:22:00
7:32 PM,62.6,60.8,94,29.90,10.0,West,6.9,-,N/A,Rain,Light Rain,270,2011-11-28 01:32:00
7:39 PM,62.6,60.8,94,29.90,10.0,Variable,6.9,-,N/A,Rain,Light Rain,0,2011-11-28 01:39:00
7:44 PM,62.6,60.8,94,29.90,10.0,West,5.8,-,N/A,Rain,Light Rain,270,2011-11-28 01:44:00
7:50 PM,62.6,60.8,94,29.90,10.0,West,5.8,-,N/A,,Light Drizzle,270,2011-11-28 01:50:00
7:51 PM,62.6,60.8,94,29.90,10.0,West,5.8,-,N/A,,Overcast,270,2011-11-28 01:51:00
7:52 PM,62.6,60.8,94,29.90,10.0,West,5.8,-,N/A,,Overcast,280,2011-11-28 01:52:00
7:55 PM,61.9,60.1,94,29.90,10.0,West,5.8,-,0.00,,Overcast,270,2011-11-28 01:55:00
7:59 PM,62.6,60.8,94,29.90,10.0,West,4.6,-,N/A,,Light Drizzle,280,2011-11-28 01:59:00
8:10 PM,62.6,60.8,94,29.90,10.0,Variable,4.6,-,N/A,,Mostly Cloudy,0,2011-11-28 02:10:00
8:14 PM,62.6,60.8,94,29.90,10.0,Variable,4.6,-,N/A,Rain,Light Rain,0,2011-11-28 02:14:00
8:19 PM,62.6,60.8,94,29.88,10.0,WNW,5.8,-,N/A,,Light Drizzle,300,2011-11-28 02:19:00
8:22 PM,60.8,60.8,100,29.89,10.0,NW,5.8,-,N/A,,Light Drizzle,310,2011-11-28 02:22:00
8:26 PM,60.8,59.0,94,29.88,10.0,WNW,4.6,-,N/A,,Light Drizzle,300,2011-11-28 02:26:00
8:49 PM,60.8,60.8,100,29.90,10.0,West,3.5,-,N/A,,Overcast,260,2011-11-28 02:49:00
8:51 PM,60.8,60.8,100,29.90,10.0,West,3.5,-,N/A,,Light Drizzle,260,2011-11-28 02:51:00
8:55 PM,61.7,59.9,94,29.89,10.0,West,3.5,-,0.00,,Light Drizzle,260,2011-11-28 02:55:00
9:02 PM,60.8,60.8,100,29.89,10.0,Calm,Calm,-,N/A,,Overcast,0,2011-11-28 03:02:00
9:09 PM,60.8,60.8,100,29.89,10.0,West,3.5,-,N/A,,Overcast,280,2011-11-28 03:09:00
9:27 PM,60.8,60.8,100,29.88,10.0,Calm,Calm,-,N/A,,Overcast,0,2011-11-28 03:27:00
9:38 PM,60.8,60.8,100,29.88,10.0,West,3.5,-,N/A,,Overcast,260,2011-11-28 03:38:00
9:43 PM,60.8,60.8,100,29.88,10.0,Calm,Calm,-,N/A,,Light Drizzle,0,2011-11-28 03:43:00
9:47 PM,60.8,60.8,100,29.89,10.0,Calm,Calm,-,N/A,,Light Drizzle,0,2011-11-28 03:47:00
9:50 PM,60.8,59.0,94,29.89,10.0,WSW,10.4,-,N/A,,Light Drizzle,250,2011-11-28 03:50:00
9:55 PM,60.3,58.6,94,29.89,10.0,West,11.5,16.1,0.00,,Light Drizzle,270,2011-11-28 03:55:00
9:57 PM,59.0,57.2,94,29.89,10.0,West,13.8,20.7,N/A,,Light Drizzle,280,2011-11-28 03:57:00
9:59 PM,59.0,57.2,94,29.90,10.0,WNW,17.3,20.7,N/A,,Overcast,290,2011-11-28 03:59:00
10:06 PM,59.0,57.2,94,29.89,10.0,NW,12.7,20.7,N/A,,Overcast,310,2011-11-28 04:06:00
10:09 PM,57.2,55.4,94,29.89,10.0,NW,12.7,-,N/A,,Light Drizzle,310,2011-11-28 04:09:00
10:13 PM,57.2,55.4,94,29.89,10.0,NW,12.7,-,N/A,,Light Drizzle,320,2011-11-28 04:13:00
10:42 PM,55.4,53.6,94,29.89,10.0,NW,8.1,-,N/A,,Light Drizzle,310,2011-11-28 04:42:00
10:46 PM,55.4,53.6,94,29.89,10.0,NW,9.2,-,N/A,,Overcast,320,2011-11-28 04:46:00
10:53 PM,55.4,53.6,94,29.89,10.0,NW,8.1,-,N/A,Rain,Light Rain,320,2011-11-28 04:53:00
10:55 PM,54.7,53.4,96,29.89,10.0,NW,8.1,-,0.00,Rain,Light Rain,320,2011-11-28 04:55:00
11:04 PM,55.4,53.6,94,29.90,10.0,NW,10.4,-,N/A,Rain,Light Rain,320,2011-11-28 05:04:00
11:05 PM,53.6,53.6,100,29.89,10.0,NW,8.1,-,N/A,,Overcast,310,2011-11-28 05:05:00
11:10 PM,53.6,53.6,100,29.89,10.0,NW,8.1,-,N/A,Rain,Light Rain,320,2011-11-28 05:10:00
11:11 PM,53.6,53.6,100,29.89,10.0,NW,9.2,-,N/A,Rain,Light Rain,320,2011-11-28 05:11:00
11:28 PM,53.6,51.8,94,29.89,10.0,NW,8.1,-,N/A,Rain,Light Rain,320,2011-11-28 05:28:00
11:55 PM,53.1,51.6,95,29.90,10.0,WNW,10.4,-,0.02,Rain,Light Rain,290,2011-11-28 05:55:00